SCP
0 0 0 0 1 1 1 1 1 0 0 0 0 0 0 0 0 0 0 0 0 1 1 1 1 1 1 1 1 1 1 1 1 1 1 1 1 0 0 0 0 0 0 0
0 0 0 1 1 1 1 0 0 0 0 0 0 0 0 0 0 0 0 0 0 1 1 1 1 1 1 1 1 1 2 1 1 1 1 1 1 1 1 0 0 0 0 0
0 0 0 1 1 0 0 0 0 0 0 0 0 0 0 0 0 0 0 0 0 1 1 1 1 1 1 1 1 1 1 1 1 1 1 1 1 1 1 1 1 1 1 1
0 0 0 0 0 0 0 0 0 0 0 0 0 0 0 0 0 0 0 0 0 0 1 1 1 1 1 1 1 1 1 1 1 1 1 1 1 1 1 1 1 1 1 1
0 0 0 0 0 0 0 0 0 0 0 0 0 0 0 0 0 0 0 0 0 0 0 0 1 1 1 1 1 1 1 1 1 1 1 1 1 1 1 1 1 1 1 1
0 0 0 0 0 0 0 0 0 0 0 0 0 0 0 0 0 0 0 0 0 0 0 1 1 1 1 1 1 1 1 0 0 0 0 0 1 1 1 1 1 1 1 1
0 0 0 0 0 0 0 0 0 0 0 0 0 0 0 0 0 0 0 0 0 1 1 1 2 2 1 1 1 1 0 0 0 0 0 0 0 1 1 1 1 1 1 1
0 0 0 0 0 0 0 0 0 0 0 0 0 0 0 0 0 0 0 0 0 1 1 2 2 2 1 1 1 0 0 0 0 0 0 0 0 1 0 0 0 1 1 1
0 0 0 0 0 0 0 0 0 0 0 0 0 0 0 0 0 0 0 0 0 1 1 2 2 1 1 1 0 0 0 0 0 0 0 0 0 0 0 0 1 1 1 1
0 0 0 0 0 0 0 0 0 0 0 0 0 0 0 0 0 0 0 0 0 1 1 1 1 1 1 0 0 0 0 0 0 0 0 0 0 0 0 0 1 1 0 0
0 0 0 0 0 0 0 0 0 0 0 0 0 0 0 0 0 0 0 0 0 0 0 0 0 0 0 0 0 0 0 0 0 0 0 0 0 0 0 0 0 0 0 0
0 0 0 0 0 0 0 0 0 0 0 0 0 0 0 0 0 0 0 0 0 0 0 0 0 0 0 0 0 0 0 0 0 0 0 0 0 0 0 0 0 0 0 0
0 0 0 0 0 0 0 0 0 0 0 0 0 0 0 0 0 0 0 0 0 0 0 0 0 0 0 0 0 0 0 0 0 0 0 0 0 0 0 0 0 0 0 0
0 0 0 0 0 0 0 0 0 0 0 0 0 0 0 0 0 0 0 0 0 0 0 0 0 0 0 0 0 0 0 0 0 0 0 0 0 0 0 0 0 0 0 0
0 0 0 0 0 0 0 0 0 0 0 0 0 0 0 0 0 0 0 0 0 0 0 0 0 0 0 0 0 0 0 0 0 0 0 0 0 0 0 0 0 0 0 0
0 0 0 0 0 0 0 0 0 0 0 0 0 0 0 0 0 0 0 0 0 0 0 0 0 0 0 0 0 0 0 0 0 0 0 0 0 0 0 0 0 0 0 0
0 0 0 0 0 0 0 0 0 0 0 0 0 0 0 0 0 0 0 0 0 0 0 0 0 0 0 0 0 0 0 0 0 0 0 0 0 0 0 0 0 0 0 0
0 0 0 0 0 0 0 0 0 0 0 0 0 0 0 0 0 0 0 0 0 0 0 0 0 0 0 0 0 0 0 0 0 0 0 0 0 0 0 0 0 0 0 0
0 0 0 0 0 0 0 0 0 0 0 0 0 0 0 0 0 0 0 0 0 0 0 0 0 0 0 0 0 0 0 0 0 0 0 0 0 0 0 0 0 0 0 0
0 0 0 0 0 0 0 0 0 0 0 0 0 0 0 0 0 0 0 0 0 0 0 0 0 0 0 0 0 0 0 0 0 0 0 0 0 0 0 0 0 0 0 0
0 0 0 0 0 0 0 0 0 0 0 0 0 0 0 0 0 0 0 0 0 0 0 0 0 0 0 0 0 0 0 0 0 0 0 0 0 0 0 0 0 0 0 0
0 0 0 0 0 0 0 0 0 0 0 0 0 0 0 0 0 0 0 0 0 0 0 0 0 0 0 0 0 0 0 0 0 0 0 0 0 0 0 0 0 0 0 0
0 0 0 0 0 0 0 0 0 0 0 0 0 0 0 0 0 0 0 0 0 0 0 0 0 0 0 0 0 0 0 0 0 0 0 0 0 0 0 0 0 0 0 0
0 0 0 0 0 0 0 0 0 0 0 0 0 0 0 0 0 0 0 0 0 0 0 0 0 0 0 0 0 0 0 0 0 0 0 0 0 0 0 0 0 0 0 0
0 0 0 0 0 0 0 0 0 0 0 0 0 0 0 0 0 0 0 0 0 0 0 0 0 0 0 0 0 0 0 0 0 0 0 0 0 0 0 0 0 0 0 0
0 0 0 0 0 0 0 0 0 0 0 0 0 0 0 0 0 0 0 0 0 0 0 0 0 0 0 0 0 0 0 0 0 0 0 0 0 0 0 0 0 0 0 0
0 0 0 0 0 0 0 0 0 0 0 0 0 0 0 0 0 0 0 0 0 0 0 0 0 0 0 0 0 0 0 0 0 0 0 0 0 0 0 0 0 0 0 0
Wind_Speed
17 18 15 10 11 13 12 11 11 15 18 11 9 11 13 14 15 16 18 17 14 12 10 9 8 8 8 9 9 9 9 10 11 12 12 12 10 9 10 10 12 11 9 8
17 15 4 10 12 11 11 11 13 15 15 10 11 13 16 17 18 20 20 15 10 8 8 8 7 8 9 9 8 8 8 8 9 10 12 12 12 11 11 11 11 10 9 8
12 14 8 8 11 12 12 13 14 18 16 14 14 17 19 21 23 20 17 19 18 15 11 8 9 8 9 8 8 8 8 10 10 10 11 11 12 11 11 11 10 10 8 7
10 11 7 7 6 9 12 14 16 14 15 16 18 18 18 19 18 20 22 22 19 17 16 14 13 12 9 11 10 10 10 10 11 11 13 11 11 10 10 9 8 8 7 7
8 12 4 6 9 14 16 16 12 13 17 20 22 22 19 18 22 22 21 19 17 19 20 16 14 13 13 12 11 11 12 12 13 13 13 13 13 11 10 9 8 7 7 8
10 12 9 8 13 16 16 9 14 20 21 22 24 20 17 21 23 22 20 18 18 19 19 15 12 12 13 15 14 14 13 12 13 13 14 15 14 11 11 9 8 8 8 8
10 12 6 9 15 16 12 13 20 21 22 23 21 20 22 24 23 21 20 18 18 17 16 13 11 12 13 14 15 13 11 12 13 13 14 15 14 11 10 11 11 9 8 7
8 9 7 14 14 12 13 16 19 21 22 22 22 23 23 22 21 21 21 20 20 15 14 11 10 11 13 14 13 11 12 15 15 13 15 15 12 11 10 9 9 9 8 8
6 8 9 13 13 14 16 19 19 21 23 23 24 25 25 23 21 21 21 19 18 17 15 11 10 12 16 16 15 15 16 17 16 15 13 13 13 12 9 8 7 8 8 9
7 9 13 13 14 17 18 19 21 22 23 24 25 26 26 23 22 21 20 19 19 19 18 17 15 15 15 15 16 17 18 17 14 14 13 12 10 9 9 8 7 7 8 8
11 11 13 12 16 18 19 20 22 22 23 24 25 25 25 22 21 21 20 19 19 19 19 20 18 18 17 16 15 16 15 14 13 12 12 11 9 8 9 7 5 3 2 4
7 11 13 16 18 19 20 21 22 23 24 23 23 24 25 23 20 20 20 19 19 19 19 19 19 18 17 15 13 13 13 12 9 8 8 8 7 7 9 9 8 7 6 5
8 12 13 16 17 18 19 22 22 22 23 23 23 23 23 22 21 21 19 19 19 19 19 19 18 17 16 14 12 13 13 11 8 7 7 7 7 7 6 7 11 9 8 8
9 10 14 14 16 18 20 21 22 22 22 22 22 22 23 23 23 22 21 20 19 19 19 17 17 16 14 12 12 12 11 11 8 6 6 6 6 6 6 6 6 6 6 7
9 10 13 15 16 18 19 20 21 21 22 22 21 22 23 23 22 21 20 20 19 18 17 16 15 14 12 11 12 11 8 5 4 5 4 4 5 6 5 6 5 3 5 5
10 11 13 15 17 18 20 21 20 21 22 23 22 23 23 21 20 20 20 19 19 18 17 15 15 14 13 12 10 7 5 5 5 3 2 3 4 4 4 4 3 3 5 7
10 11 13 15 16 18 19 19 20 20 21 22 23 23 21 20 19 20 20 19 17 16 14 14 14 15 14 10 8 4 3 3 3 3 3 3 3 4 4 4 3 5 6 9
8 10 11 13 14 16 18 18 18 19 19 21 22 22 21 20 19 20 20 19 17 16 15 15 15 15 12 10 8 5 3 2 1 1 1 2 3 4 4 4 5 8 9 10
9 10 11 12 13 14 15 16 17 17 18 19 21 21 19 18 17 19 19 17 15 16 17 17 18 13 10 10 10 4 3 2 1 1 2 4 4 4 3 3 6 9 9 9
8 9 11 11 12 13 14 15 16 15 17 18 19 20 19 19 17 18 18 15 12 13 17 16 15 10 9 10 12 7 5 3 1 1 1 2 3 3 4 6 7 7 7 7
8 10 11 11 12 12 13 14 14 15 16 18 18 18 18 17 16 15 15 13 15 18 19 16 10 8 8 9 11 7 6 6 5 4 3 2 2 3 4 4 4 4 5 6
7 8 10 10 11 12 12 12 13 14 16 17 18 18 17 16 17 16 14 11 15 20 16 11 9 9 10 12 8 5 2 2 2 2 2 1 1 0 1 1 2 3 4 6
6 7 8 9 10 11 11 11 12 12 14 15 16 16 16 12 9 11 14 13 15 22 16 10 13 14 13 9 7 5 2 1 2 3 3 3 2 2 2 3 4 5 7 8
5 6 7 7 9 10 10 11 11 10 13 13 14 14 13 11 10 9 10 16 20 22 14 12 16 17 11 6 7 6 4 2 2 2 2 2 3 4 4 5 6 7 8 10
5 6 7 6 8 7 8 10 10 11 13 12 15 15 12 9 10 11 12 15 19 19 14 14 16 16 11 9 9 8 5 4 4 3 2 2 3 4 5 6 6 6 7 8
5 6 5 4 4 4 6 7 8 9 10 11 12 12 12 10 11 11 11 14 18 17 15 14 14 13 11 11 10 11 10 8 4 1 2 2 3 3 3 5 7 6 6 5
7 7 5 4 3 5 6 6 7 8 9 11 12 12 12 12 11 12 13 13 13 13 13 14 14 14 13 14 13 13 12 12 12 8 4 2 3 4 5 6 5 4 5 5
Wind_Direction
317 313 323 5 26 22 18 10 339 336 331 2 20 346 327 315 310 308 302 293 283 276 272 269 268 267 271 269 270 269 266 257 254 256 259 263 260 254 256 259 263 261 263 268
310 311 33 65 39 22 14 3 343 328 322 6 353 331 317 317 318 312 309 319 324 311 301 306 315 315 311 301 295 288 285 284 278 268 261 259 255 252 251 252 255 252 250 254
303 308 300 64 26 12 0 349 333 320 328 343 332 320 321 325 315 317 339 336 325 318 313 308 302 291 282 287 292 294 296 299 298 292 286 277 266 252 246 248 250 247 247 254
303 328 8 67 24 358 340 331 336 353 357 340 325 325 323 312 324 339 328 321 317 314 312 305 301 299 294 296 289 289 293 295 295 296 297 296 290 273 255 250 251 247 249 255
333 337 25 99 27 1 334 321 25 356 336 331 330 319 312 330 334 320 314 313 310 308 304 301 297 293 289 288 287 287 288 290 292 287 286 289 289 290 285 268 256 253 252 245
349 333 353 45 9 349 321 299 14 346 335 331 326 319 321 326 318 315 314 309 303 300 297 294 291 291 286 285 284 281 282 288 292 288 282 279 276 280 287 283 269 254 246 240
343 324 63 17 357 347 334 330 335 331 329 324 322 314 312 315 316 313 308 304 302 298 297 294 291 290 286 291 290 284 286 294 293 287 282 279 272 265 268 271 270 263 256 250
334 330 8 4 355 353 329 326 329 327 322 319 316 312 312 313 312 309 308 308 307 303 300 297 298 301 303 304 306 302 298 295 292 284 279 277 273 264 258 260 266 265 256 250
333 320 340 2 350 345 339 330 325 322 320 318 316 316 316 314 312 313 314 313 312 311 309 309 312 317 311 310 309 303 296 290 286 280 273 271 271 268 263 255 254 256 252 244
313 310 345 349 345 339 332 326 324 323 322 322 319 318 316 316 316 317 319 321 322 322 319 317 320 318 309 303 299 293 287 284 280 275 269 264 261 261 261 255 247 243 249 258
310 344 341 333 335 331 326 327 325 326 326 323 320 319 320 320 322 326 328 330 332 326 321 318 316 308 300 295 290 285 283 279 274 268 265 261 256 253 256 247 217 194 273 292
321 332 320 323 330 327 330 330 331 329 327 326 326 324 324 325 329 331 330 333 329 323 318 313 308 302 297 291 284 281 280 275 269 266 263 256 253 258 245 231 209 201 226 244
324 329 324 322 324 332 332 333 332 330 328 328 328 329 330 332 333 331 330 330 325 319 314 308 304 300 297 293 286 281 277 275 271 266 259 253 247 247 245 224 218 217 219 219
337 330 323 323 330 335 335 333 331 330 331 331 333 335 337 337 334 333 332 327 321 316 311 309 306 302 299 297 293 287 281 278 273 264 258 250 244 242 235 226 221 207 193 197
334 328 323 328 335 336 334 334 334 333 334 336 339 342 342 338 335 333 328 324 320 317 316 316 314 311 307 302 297 295 290 279 274 270 256 236 229 234 233 233 230 198 138 133
325 327 331 336 337 336 336 338 336 335 338 339 343 345 341 337 334 329 327 328 327 325 322 321 320 322 319 314 310 305 297 295 290 269 229 224 222 223 226 230 214 175 165 151
326 331 337 338 337 337 338 339 338 338 339 342 344 342 340 338 335 332 332 332 330 326 326 328 328 330 328 331 331 324 319 320 281 248 240 231 229 227 222 211 205 189 168 155
325 329 337 339 339 337 338 339 340 341 343 344 342 340 342 341 338 334 334 332 333 335 341 338 335 329 333 351 347 337 340 351 13 181 181 203 216 225 235 230 192 149 136 144
321 331 342 345 342 341 339 339 340 342 346 346 342 342 342 342 340 335 333 335 339 342 340 336 329 328 345 2 348 338 349 344 294 221 200 200 218 218 195 135 110 117 131 146
321 338 344 342 345 343 339 340 340 345 350 348 345 344 344 344 342 338 336 338 342 341 331 328 325 331 345 354 342 337 349 357 18 88 134 134 129 117 105 100 100 111 126 142
329 338 340 343 343 340 340 340 342 350 352 350 347 346 344 342 343 341 338 339 339 339 335 322 321 334 342 338 323 334 357 2 7 16 35 68 91 95 90 92 104 119 135 148
330 334 337 339 335 335 336 340 347 352 353 348 348 348 347 347 345 342 340 338 330 331 333 326 329 333 325 317 305 309 306 327 327 313 301 281 248 180 153 166 168 174 175 174
326 331 334 331 331 325 332 343 350 354 353 347 349 349 348 348 344 340 335 331 328 328 327 324 327 320 312 302 299 308 306 249 238 238 238 237 229 214 205 196 185 178 169 168
311 323 324 327 324 321 338 343 350 356 351 348 350 351 349 346 344 342 327 322 328 329 328 327 331 333 324 318 323 327 328 316 273 262 239 226 196 176 168 166 168 167 166 169
301 309 305 321 319 333 339 344 352 355 351 352 350 352 354 353 345 336 332 333 336 336 337 340 344 345 353 357 358 355 353 2 0 2 26 100 139 153 159 162 164 165 164 163
264 275 290 295 298 332 345 353 355 356 352 353 349 349 350 353 349 344 338 338 343 343 346 348 349 355 0 358 1 8 7 4 359 59 113 120 139 162 171 170 163 154 149 146
230 245 238 259 11 22 359 356 1 358 0 356 346 349 352 353 349 346 346 348 350 352 352 352 352 357 2 3 4 10 12 9 3 1 16 80 134 156 170 168 159 154 157 156